,,PressureMeas_1m,,PRMeasQMR101_1,,RHStat155_1m_1,,SRMeasQMS101R_1m,,TAStat155_1m_1,,GenWind_1,,GenWind_1,
2017-08-18, 07:00:07,VALID,916.536,VALID,0.0,VALID,98.049,VALID,7.855,VALID,19.914,VALID,45.0,VALID,0.691,
2017-08-18, 07:01:07,VALID,916.551,VALID,0.0,VALID,97.988,VALID,8.669,VALID,19.907,VALID,61.0,VALID,0.353,
2017-08-18, 07:02:07,VALID,916.543,VALID,0.0,VALID,97.969,VALID,9.616,VALID,19.886,VALID,83.0,VALID,0.322,
2017-08-18, 07:03:07,VALID,916.568,VALID,0.0,VALID,97.905,VALID,10.6,VALID,19.892,VALID,111.0,VALID,0.113,
2017-08-18, 07:04:07,VALID,916.577,VALID,0.0,VALID,97.871,VALID,11.503,VALID,19.902,VALID,145.0,VALID,0.259,
2017-08-18, 07:05:07,VALID,916.581,VALID,0.0,VALID,97.848,VALID,12.23,VALID,19.955,VALID,148.0,VALID,0.158,
2017-08-18, 07:06:06,VALID,916.597,VALID,0.0,VALID,97.84,VALID,12.75,VALID,19.987,VALID,139.0,VALID,0.427,
2017-08-18, 07:07:06,VALID,916.62,VALID,0.0,VALID,97.773,VALID,13.14,VALID,20.0,VALID,116.0,VALID,0.821,
2017-08-18, 07:08:06,VALID,916.653,VALID,0.0,VALID,97.659,VALID,13.413,VALID,19.994,VALID,121.0,VALID,0.569,
2017-08-18, 07:09:06,VALID,916.669,VALID,0.0,VALID,97.675,VALID,13.694,VALID,20.01,VALID,124.0,VALID,0.559,
2017-08-18, 07:10:06,VALID,916.684,VALID,0.0,VALID,97.63,VALID,14.167,VALID,19.991,VALID,135.0,VALID,0.66,
2017-08-18, 07:11:06,VALID,916.715,VALID,0.0,VALID,97.576,VALID,14.831,VALID,19.981,VALID,164.0,VALID,0.707,
2017-08-18, 07:12:06,VALID,916.719,VALID,0.0,VALID,97.537,VALID,15.623,VALID,19.964,VALID,162.0,VALID,0.878,
2017-08-18, 07:13:06,VALID,916.738,VALID,0.0,VALID,97.541,VALID,16.573,VALID,19.953,VALID,158.0,VALID,0.862,
2017-08-18, 07:14:06,VALID,916.75,VALID,0.0,VALID,97.494,VALID,17.638,VALID,19.911,VALID,147.0,VALID,1.262,
2017-08-18, 07:15:06,VALID,916.766,VALID,0.0,VALID,97.596,VALID,18.83,VALID,19.884,VALID,141.0,VALID,1.129,
2017-08-18, 07:16:06,VALID,916.79,VALID,0.0,VALID,97.733,VALID,20.151,VALID,19.866,VALID,134.0,VALID,0.884,
2017-08-18, 07:17:06,VALID,916.825,VALID,0.0,VALID,97.805,VALID,21.632,VALID,19.855,VALID,127.0,VALID,0.918,
2017-08-18, 07:18:06,VALID,916.835,VALID,0.0,VALID,97.859,VALID,23.418,VALID,19.871,VALID,115.0,VALID,0.91,
2017-08-18, 07:19:06,VALID,916.854,VALID,0.0,VALID,97.87,VALID,25.5,VALID,19.878,VALID,127.0,VALID,0.684,
2017-08-18, 07:20:06,VALID,916.872,VALID,0.0,VALID,97.917,VALID,27.566,VALID,19.898,VALID,132.0,VALID,0.458,
2017-08-18, 07:21:06,VALID,916.888,VALID,0.0,VALID,97.942,VALID,29.184,VALID,19.915,VALID,133.0,VALID,0.614,
2017-08-18, 07:22:06,VALID,916.906,VALID,0.0,VALID,97.946,VALID,30.266,VALID,19.92,VALID,134.0,VALID,0.427,
2017-08-18, 07:23:06,VALID,916.92,VALID,0.0,VALID,97.963,VALID,31.003,VALID,19.934,VALID,144.0,VALID,0.866,
2017-08-18, 07:24:06,VALID,916.941,VALID,0.0,VALID,97.952,VALID,31.558,VALID,19.945,VALID,149.0,VALID,0.778,
2017-08-18, 07:25:06,VALID,916.958,VALID,0.0,VALID,97.914,VALID,32.296,VALID,19.94,VALID,149.0,VALID,1.055,
2017-08-18, 07:26:06,VALID,916.963,VALID,0.0,VALID,97.781,VALID,33.487,VALID,19.914,VALID,145.0,VALID,1.177,
2017-08-18, 07:27:06,VALID,916.973,VALID,0.0,VALID,97.73,VALID,35.907,VALID,19.922,VALID,145.0,VALID,1.217,
2017-08-18, 07:28:06,VALID,916.97,VALID,0.0,VALID,97.68,VALID,38.513,VALID,19.918,VALID,142.0,VALID,1.411,
2017-08-18, 07:29:06,VALID,916.968,VALID,0.0,VALID,97.618,VALID,41.322,VALID,19.906,VALID,146.0,VALID,1.396,
2017-08-18, 07:30:06,VALID,916.97,VALID,0.0,VALID,97.644,VALID,43.476,VALID,19.916,VALID,142.0,VALID,1.509,
2017-08-18, 07:31:06,VALID,916.984,VALID,0.0,VALID,97.722,VALID,45.438,VALID,19.911,VALID,136.0,VALID,1.488,
2017-08-18, 07:32:06,VALID,916.999,VALID,0.0,VALID,97.775,VALID,46.702,VALID,19.912,VALID,138.0,VALID,1.129,
2017-08-18, 07:33:06,VALID,917.004,VALID,0.0,VALID,97.856,VALID,47.839,VALID,19.921,VALID,135.0,VALID,1.245,
2017-08-18, 07:34:06,VALID,917.014,VALID,0.0,VALID,97.948,VALID,48.811,VALID,19.935,VALID,135.0,VALID,1.157,
2017-08-18, 07:35:06,VALID,917.014,VALID,0.0,VALID,97.868,VALID,50.353,VALID,19.915,VALID,136.0,VALID,1.121,
2017-08-18, 07:36:06,VALID,917.03,VALID,0.0,VALID,97.862,VALID,52.507,VALID,19.929,VALID,137.0,VALID,0.946,
2017-08-18, 07:37:06,VALID,917.036,VALID,0.0,VALID,97.959,VALID,55.413,VALID,19.98,VALID,133.0,VALID,0.919,
2017-08-18, 07:38:06,VALID,917.043,VALID,0.0,VALID,97.904,VALID,58.634,VALID,19.992,VALID,134.0,VALID,0.91,
2017-08-18, 07:39:06,VALID,917.046,VALID,0.0,VALID,97.87,VALID,61.743,VALID,20.019,VALID,131.0,VALID,0.82,
2017-08-18, 07:40:06,VALID,917.055,VALID,0.0,VALID,97.803,VALID,64.551,VALID,20.067,VALID,127.0,VALID,0.575,
2017-08-18, 07:41:06,VALID,917.063,VALID,0.0,VALID,97.796,VALID,67.091,VALID,20.108,VALID,133.0,VALID,0.784,
2017-08-18, 07:42:06,VALID,917.081,VALID,0.0,VALID,97.669,VALID,69.462,VALID,20.135,VALID,125.0,VALID,0.773,
2017-08-18, 07:43:06,VALID,917.091,VALID,0.0,VALID,97.522,VALID,72.055,VALID,20.169,VALID,119.0,VALID,1.05,
2017-08-18, 07:44:06,VALID,917.108,VALID,0.0,VALID,97.43,VALID,75.363,VALID,20.21,VALID,120.0,VALID,1.108,
2017-08-18, 07:45:06,VALID,917.123,VALID,0.0,VALID,97.153,VALID,79.764,VALID,20.244,VALID,122.0,VALID,1.175,
2017-08-18, 07:46:06,VALID,917.13,VALID,0.0,VALID,96.765,VALID,84.973,VALID,20.285,VALID,106.0,VALID,1.212,
2017-08-18, 07:47:06,VALID,917.138,VALID,0.0,VALID,96.962,VALID,90.379,VALID,20.376,VALID,97.0,VALID,1.17,
2017-08-18, 07:48:06,VALID,917.16,VALID,0.0,VALID,96.523,VALID,95.75,VALID,20.348,VALID,100.0,VALID,1.643,
2017-08-18, 07:49:06,VALID,917.151,VALID,0.0,VALID,96.277,VALID,100.785,VALID,20.353,VALID,98.0,VALID,1.437,
2017-08-18, 07:50:06,VALID,917.15,VALID,0.0,VALID,96.57,VALID,104.962,VALID,20.385,VALID,95.0,VALID,1.504,
2017-08-18, 07:51:06,VALID,917.156,VALID,0.0,VALID,96.466,VALID,107.036,VALID,20.382,VALID,104.0,VALID,1.781,
2017-08-18, 07:52:06,VALID,917.143,VALID,0.0,VALID,96.423,VALID,106.216,VALID,20.377,VALID,99.0,VALID,1.969,
2017-08-18, 07:53:06,VALID,917.16,VALID,0.0,VALID,95.874,VALID,102.316,VALID,20.332,VALID,100.0,VALID,2.094,
2017-08-18, 07:54:06,VALID,917.165,VALID,0.0,VALID,96.215,VALID,98.524,VALID,20.354,VALID,102.0,VALID,1.714,
2017-08-18, 07:55:06,VALID,917.17,VALID,0.0,VALID,96.096,VALID,96.197,VALID,20.355,VALID,105.0,VALID,1.806,
2017-08-18, 07:56:06,VALID,917.185,VALID,0.0,VALID,96.251,VALID,95.254,VALID,20.395,VALID,101.0,VALID,1.67,
2017-08-18, 07:57:06,VALID,917.205,VALID,0.0,VALID,95.974,VALID,95.628,VALID,20.393,VALID,108.0,VALID,1.845,
2017-08-18, 07:58:06,VALID,917.223,VALID,0.0,VALID,96.296,VALID,96.763,VALID,20.477,VALID,134.0,VALID,1.257,
2017-08-18, 07:59:06,VALID,917.24,VALID,0.0,VALID,96.739,VALID,98.496,VALID,20.473,VALID,151.0,VALID,1.564,
2017-08-18, 08:00:06,VALID,917.256,VALID,0.0,VALID,96.403,VALID,100.747,VALID,20.372,VALID,147.0,VALID,1.41,
2017-08-18, 08:01:06,VALID,917.267,VALID,0.0,VALID,96.618,VALID,102.713,VALID,20.346,VALID,148.0,VALID,1.462,
2017-08-18, 08:02:06,VALID,917.283,VALID,0.0,VALID,96.845,VALID,104.353,VALID,20.357,VALID,129.0,VALID,1.413,
2017-08-18, 08:03:06,VALID,917.289,VALID,0.0,VALID,96.814,VALID,105.865,VALID,20.361,VALID,130.0,VALID,1.167,
2017-08-18, 08:04:06,VALID,917.303,VALID,0.0,VALID,96.947,VALID,107.507,VALID,20.399,VALID,146.0,VALID,1.406,
2017-08-18, 08:05:06,VALID,917.319,VALID,0.0,VALID,96.855,VALID,109.569,VALID,20.364,VALID,138.0,VALID,1.46,
2017-08-18, 08:06:06,VALID,917.343,VALID,0.0,VALID,96.936,VALID,111.692,VALID,20.377,VALID,126.0,VALID,1.28,
2017-08-18, 08:07:06,VALID,917.35,VALID,0.0,VALID,97.284,VALID,113.71,VALID,20.441,VALID,145.0,VALID,1.185,
2017-08-18, 08:08:06,VALID,917.377,VALID,0.0,VALID,97.34,VALID,115.868,VALID,20.445,VALID,136.0,VALID,1.328,
2017-08-18, 08:09:06,VALID,917.386,VALID,0.0,VALID,97.355,VALID,118.152,VALID,20.464,VALID,135.0,VALID,1.41,
2017-08-18, 08:10:06,VALID,917.412,VALID,0.0,VALID,96.951,VALID,120.278,VALID,20.401,VALID,139.0,VALID,1.764,
2017-08-18, 08:11:06,VALID,917.432,VALID,0.0,VALID,96.669,VALID,121.64,VALID,20.413,VALID,136.0,VALID,1.227,
2017-08-18, 08:12:06,VALID,917.439,VALID,0.0,VALID,96.879,VALID,121.877,VALID,20.456,VALID,137.0,VALID,1.574,
2017-08-18, 08:13:06,VALID,917.45,VALID,0.0,VALID,96.663,VALID,120.733,VALID,20.47,VALID,132.0,VALID,1.433,
2017-08-18, 08:14:06,VALID,917.46,VALID,0.0,VALID,96.81,VALID,118.708,VALID,20.509,VALID,143.0,VALID,1.144,
2017-08-18, 08:15:06,VALID,917.467,VALID,0.0,VALID,96.758,VALID,116.445,VALID,20.487,VALID,149.0,VALID,1.289,
2017-08-18, 08:16:06,VALID,917.497,VALID,0.0,VALID,96.957,VALID,114.543,VALID,20.498,VALID,137.0,VALID,1.106,
2017-08-18, 08:17:06,VALID,917.508,VALID,0.0,VALID,97.004,VALID,113.456,VALID,20.563,VALID,129.0,VALID,1.377,
2017-08-18, 08:18:06,VALID,917.51,VALID,0.0,VALID,95.926,VALID,113.445,VALID,20.584,VALID,133.0,VALID,1.403,
2017-08-18, 08:19:06,VALID,917.532,VALID,0.0,VALID,95.312,VALID,114.315,VALID,20.661,VALID,130.0,VALID,1.466,
2017-08-18, 08:20:06,VALID,917.533,VALID,0.0,VALID,95.216,VALID,116.27,VALID,20.736,VALID,124.0,VALID,1.238,
2017-08-18, 08:21:06,VALID,917.537,VALID,0.0,VALID,94.878,VALID,119.041,VALID,20.792,VALID,144.0,VALID,1.047,
2017-08-18, 08:22:06,VALID,917.546,VALID,0.0,VALID,94.748,VALID,122.072,VALID,20.841,VALID,143.0,VALID,1.104,
2017-08-18, 08:23:06,VALID,917.55,VALID,0.0,VALID,93.953,VALID,124.791,VALID,20.85,VALID,151.0,VALID,1.804,
2017-08-18, 08:24:06,VALID,917.565,VALID,0.0,VALID,93.341,VALID,126.617,VALID,20.872,VALID,152.0,VALID,1.561,
2017-08-18, 08:25:06,VALID,917.573,VALID,0.0,VALID,93.543,VALID,127.104,VALID,20.894,VALID,159.0,VALID,1.625,
2017-08-18, 08:26:06,VALID,917.598,VALID,0.0,VALID,93.077,VALID,126.352,VALID,20.874,VALID,145.0,VALID,1.405,
2017-08-18, 08:27:06,VALID,917.611,VALID,0.0,VALID,93.559,VALID,125.067,VALID,20.877,VALID,152.0,VALID,1.473,
2017-08-18, 08:28:06,VALID,917.621,VALID,0.0,VALID,94.109,VALID,124.1,VALID,20.901,VALID,164.0,VALID,1.199,
2017-08-18, 08:29:06,VALID,917.633,VALID,0.0,VALID,93.87,VALID,123.255,VALID,20.918,VALID,159.0,VALID,1.228,
2017-08-18, 08:30:06,VALID,917.626,VALID,0.0,VALID,93.715,VALID,122.623,VALID,20.963,VALID,165.0,VALID,0.88,
2017-08-18, 08:31:06,VALID,917.648,VALID,0.0,VALID,93.405,VALID,122.257,VALID,20.984,VALID,150.0,VALID,1.712,
2017-08-18, 08:32:06,VALID,917.65,VALID,0.0,VALID,92.433,VALID,122.043,VALID,20.997,VALID,151.0,VALID,1.86,
2017-08-18, 08:33:06,VALID,917.655,VALID,0.0,VALID,92.709,VALID,121.964,VALID,21.005,VALID,149.0,VALID,1.979,
2017-08-18, 08:34:06,VALID,917.668,VALID,0.0,VALID,93.129,VALID,122.077,VALID,20.997,VALID,138.0,VALID,1.518,
2017-08-18, 08:35:06,VALID,917.668,VALID,0.0,VALID,93.285,VALID,121.271,VALID,21.004,VALID,138.0,VALID,1.866,
2017-08-18, 08:36:06,VALID,917.674,VALID,0.0,VALID,93.227,VALID,118.799,VALID,21.05,VALID,145.0,VALID,1.701,
2017-08-18, 08:37:06,VALID,917.694,VALID,0.0,VALID,92.657,VALID,114.942,VALID,21.091,VALID,143.0,VALID,1.768,
2017-08-18, 08:38:06,VALID,917.712,VALID,0.0,VALID,92.745,VALID,110.448,VALID,21.133,VALID,151.0,VALID,1.407,
2017-08-18, 08:39:06,VALID,917.735,VALID,0.0,VALID,92.797,VALID,106.637,VALID,21.149,VALID,148.0,VALID,1.899,
2017-08-18, 08:40:06,VALID,917.743,VALID,0.0,VALID,91.419,VALID,104.57,VALID,21.124,VALID,152.0,VALID,1.825,
2017-08-18, 08:41:06,VALID,917.773,VALID,0.0,VALID,91.793,VALID,104.363,VALID,21.131,VALID,155.0,VALID,1.847,
2017-08-18, 08:42:06,VALID,917.772,VALID,0.0,VALID,91.689,VALID,106.903,VALID,21.132,VALID,155.0,VALID,1.868,
2017-08-18, 08:43:06,VALID,917.781,VALID,0.0,VALID,92.07,VALID,110.223,VALID,21.145,VALID,148.0,VALID,2.271,
2017-08-18, 08:44:06,VALID,917.792,VALID,0.0,VALID,91.919,VALID,112.463,VALID,21.139,VALID,151.0,VALID,2.211,
2017-08-18, 08:45:06,VALID,917.792,VALID,0.0,VALID,92.042,VALID,114.027,VALID,21.134,VALID,147.0,VALID,2.126,
2017-08-18, 08:46:06,VALID,917.788,VALID,0.0,VALID,92.437,VALID,116.547,VALID,21.131,VALID,148.0,VALID,1.909,
2017-08-18, 08:47:06,VALID,917.782,VALID,0.0,VALID,92.269,VALID,120.728,VALID,21.133,VALID,151.0,VALID,2.112,
2017-08-18, 08:48:06,VALID,917.768,VALID,0.0,VALID,91.952,VALID,125.852,VALID,21.157,VALID,148.0,VALID,2.096,
2017-08-18, 08:49:06,VALID,917.776,VALID,0.0,VALID,92.447,VALID,131.235,VALID,21.185,VALID,143.0,VALID,1.727,
2017-08-18, 08:50:06,VALID,917.777,VALID,0.0,VALID,92.748,VALID,135.901,VALID,21.218,VALID,134.0,VALID,1.521,
2017-08-18, 08:51:06,VALID,917.776,VALID,0.0,VALID,92.899,VALID,138.373,VALID,21.264,VALID,144.0,VALID,1.538,
2017-08-18, 08:52:06,VALID,917.776,VALID,0.0,VALID,92.33,VALID,138.174,VALID,21.292,VALID,137.0,VALID,1.8,
2017-08-18, 08:53:06,VALID,917.785,VALID,0.0,VALID,91.619,VALID,135.581,VALID,21.318,VALID,139.0,VALID,1.632,
2017-08-18, 08:54:06,VALID,917.774,VALID,0.0,VALID,92.101,VALID,132.727,VALID,21.344,VALID,149.0,VALID,1.347,
2017-08-18, 08:55:06,VALID,917.785,VALID,0.0,VALID,91.916,VALID,130.836,VALID,21.338,VALID,140.0,VALID,1.506,
2017-08-18, 08:56:06,VALID,917.79,VALID,0.0,VALID,92.199,VALID,130.733,VALID,21.353,VALID,138.0,VALID,1.429,
2017-08-18, 08:57:06,VALID,917.782,VALID,0.0,VALID,92.887,VALID,133.235,VALID,21.398,VALID,138.0,VALID,1.65,
2017-08-18, 08:58:06,VALID,917.772,VALID,0.0,VALID,92.481,VALID,137.339,VALID,21.432,VALID,142.0,VALID,1.898,
2017-08-18, 08:59:06,VALID,917.773,VALID,0.0,VALID,91.668,VALID,142.499,VALID,21.444,VALID,136.0,VALID,1.836,
2017-08-18, 09:00:06,VALID,917.768,VALID,0.0,VALID,91.489,VALID,146.995,VALID,21.454,VALID,126.0,VALID,2.176,
2017-08-18, 09:01:06,VALID,917.751,VALID,0.0,VALID,91.798,VALID,148.916,VALID,21.469,VALID,128.0,VALID,1.876,
2017-08-18, 09:02:06,VALID,917.759,VALID,0.0,VALID,92.146,VALID,147.334,VALID,21.507,VALID,118.0,VALID,2.052,
2017-08-18, 09:03:06,VALID,917.757,VALID,0.0,VALID,92.1,VALID,145.426,VALID,21.541,VALID,123.0,VALID,2.032,
2017-08-18, 09:04:06,VALID,917.757,VALID,0.0,VALID,91.969,VALID,143.577,VALID,21.577,VALID,127.0,VALID,1.958,
2017-08-18, 09:05:06,VALID,917.752,VALID,0.0,VALID,92.105,VALID,142.372,VALID,21.616,VALID,106.0,VALID,1.752,
